Weather History for KGRR - September, 2012

Change the Weather History Date:

Saturday, September 15, 2012

  Actual Average Record
Temperature  
Mean Temperature 60 °F 63 °F  
Max Temperature 76 °F 74 °F 97 °F (1939)
Min Temperature 44 °F 53 °F 36 °F (1953)
Degree Days  
Heating Degree Days 5 4  
Month to date heating degree days 18 36  
Since 1 July heating degree days 27 56  
Cooling Degree Days 0 2  
Month to date cooling degree days 72 47  
Year to date cooling degree days 1034 672  
Growing Degree Days 10 (Base 50)    
Moisture  
Dew Point 44 °F    
Average Humidity 61    
Maximum Humidity 92    
Minimum Humidity 29    
Precipitation  
Precipitation 0.00 in 0.15 in 1.32 in (1901)
Month to date precipitation 1.47 2.08  
Year to date precipitation 23.69 26.80  
Snow  
Snow 0.00 in 0.00 in T in (1956)
Month to date snowfall 0.0 0.0  
Since 1 July snowfall 0.0 0.0  
Since 1 September snowfall 0.0 0.0  
Snow Depth 0.00 in    
Sea Level Pressure  
Sea Level Pressure 30.27 in    
Wind  
Wind Speed 3 mph (South)    
Max Wind Speed 10 mph    
Max Gust Speed 13 mph    
Visibility 10 miles    
Events      
T = Trace of Precipitation, MM = Missing Value Source: NWS Daily Summary

Daily Weather History Graph

Daily Weather History Graph

Search for Another Location

Airport or City:

Trip Planner

Search our weather history database for the weather conditions in past years. The results will help you decide how hot, cold, wet, or windy it might be!

Date:

Astronomy

Sep. 15, 2012 Rise Set
Actual Time 7:22 AM EDT 7:51 PM EDT
Civil Twilight 6:53 AM EDT 8:19 PM EDT
Nautical Twilight 6:20 AM EDT 8:52 PM EDT
Astronomical Twilight 5:45 AM EDT 9:27 PM EDT
Moon 6:53 AM EDT (9/15) 7:19 PM EDT (9/15)
Length of Visible Light 13h 25m
Length of Day
12h 28m
Waning Crescent, 0% of the Moon is Illuminated
Sep 15
Waning Crescent
Sep 15
New
Sep 22
First Quarter
Sep 29
Full
Oct 8
Last Quarter

Hourly Weather History & Observations

Time (EDT) Temp. Windchill Dew Point Humidity Pressure Visibility Wind Dir Wind Speed Gust Speed Precip Events Conditions
12:53 AM 51.1 °F - 44.1 °F 77% 30.31 in 10.0 mi Calm Calm - N/A   Clear
1:53 AM 48.9 °F - 44.1 °F 83% 30.31 in 10.0 mi Calm Calm - N/A   Clear
2:53 AM 46.9 °F - 43.0 °F 86% 30.32 in 10.0 mi Calm Calm - N/A   Clear
3:53 AM 46.9 °F - 43.0 °F 86% 30.31 in 10.0 mi Calm Calm - N/A   Clear
4:53 AM 46.9 °F - 43.0 °F 86% 30.31 in 10.0 mi Calm Calm - N/A   Clear
5:53 AM 46.0 °F - 43.0 °F 89% 30.32 in 10.0 mi Calm Calm - N/A   Clear
6:53 AM 44.1 °F 42.5 °F 42.1 °F 93% 30.34 in 10.0 mi ENE 3.5 mph - N/A   Clear
7:53 AM 46.0 °F - 42.1 °F 86% 30.35 in 10.0 mi Calm Calm - N/A   Clear
8:53 AM 51.1 °F - 45.0 °F 80% 30.35 in 10.0 mi Calm Calm - N/A   Clear
9:53 AM 57.9 °F - 48.0 °F 70% 30.35 in 10.0 mi ESE 5.8 mph - N/A   Partly Cloudy
10:53 AM 63.0 °F - 46.0 °F 54% 30.34 in 10.0 mi SSE 4.6 mph - N/A   Partly Cloudy
11:53 AM 66.9 °F - 45.0 °F 45% 30.32 in 10.0 mi SSE 5.8 mph - N/A   Partly Cloudy
12:53 PM 69.1 °F - 42.1 °F 38% 30.30 in 10.0 mi WSW 5.8 mph - N/A   Partly Cloudy
1:53 PM 70.0 °F - 39.9 °F 33% 30.28 in 10.0 mi Variable 3.5 mph - N/A   Partly Cloudy
2:53 PM 73.9 °F - 39.9 °F 29% 30.25 in 10.0 mi Calm Calm - N/A   Partly Cloudy
3:53 PM 73.9 °F - 39.9 °F 29% 30.23 in 10.0 mi NW 5.8 mph - N/A   Partly Cloudy
4:53 PM 73.9 °F - 42.1 °F 32% 30.21 in 10.0 mi SW 4.6 mph - N/A   Partly Cloudy
5:53 PM 73.9 °F - 42.1 °F 32% 30.19 in 10.0 mi Variable 5.8 mph - N/A   Partly Cloudy
6:53 PM 71.1 °F - 42.1 °F 35% 30.19 in 10.0 mi South 4.6 mph - N/A   Partly Cloudy
7:53 PM 68.0 °F - 45.0 °F 43% 30.17 in 10.0 mi SSW 4.6 mph - N/A   Partly Cloudy
8:53 PM 64.0 °F - 44.1 °F 48% 30.18 in 10.0 mi WSW 4.6 mph - N/A   Clear
9:53 PM 57.9 °F - 46.0 °F 65% 30.17 in 10.0 mi Calm Calm - N/A   Clear
10:53 PM 54.0 °F - 46.9 °F 77% 30.17 in 10.0 mi South 4.6 mph - N/A   Clear
11:53 PM 54.0 °F - 46.9 °F 77% 30.16 in 10.0 mi Calm Calm - N/A   Clear